Time,TemperatureF,DewpointF,PressureIn,WindDirection,WindDirectionDegrees,WindSpeedMPH,WindSpeedGustMPH,Humidity,HourlyPrecipIn,Conditions,Clouds,dailyrainin,SoftwareType,DateUTC
2013-02-21 00:12:00,27.0,13.0,-100.00,ENE,60,7.0,15.0,56,-99.99,,,-99.99,,2013-02-21 05:12:00,
2013-02-21 00:22:00,27.0,13.0,-100.00,ENE,60,7.0,15.0,56,-99.99,,,-99.99,,2013-02-21 05:22:00,
2013-02-21 00:36:00,27.0,14.0,-100.00,NE,40,5.0,14.0,57,-99.99,,,-99.99,,2013-02-21 05:36:00,
2013-02-21 00:46:00,27.0,14.0,-100.00,NE,50,3.0,16.0,57,-99.99,,,-99.99,,2013-02-21 05:46:00,
2013-02-21 00:54:00,27.0,14.0,-100.00,NE,50,3.0,16.0,57,-99.99,,,-99.99,,2013-02-21 05:54:00,
2013-02-21 01:01:00,26.0,13.0,-100.00,NE,55,6.0,9.0,57,-99.99,,,-99.99,,2013-02-21 06:01:00,
2013-02-21 01:11:00,26.0,13.0,-100.00,ENE,65,5.0,13.0,57,-99.99,,,-99.99,,2013-02-21 06:11:00,
2013-02-21 01:21:00,26.0,14.0,-100.00,East,95,5.0,10.0,58,-99.99,,,-99.99,,2013-02-21 06:21:00,
2013-02-21 01:31:00,26.0,13.0,-100.00,NNE,25,5.0,12.0,57,-99.99,,,-99.99,,2013-02-21 06:31:00,
2013-02-21 01:41:00,26.0,14.0,-100.00,ENE,75,5.0,12.0,58,-99.99,,,-99.99,,2013-02-21 06:41:00,
2013-02-21 01:51:00,26.0,14.0,-100.00,ENE,60,5.0,10.0,58,-99.99,,,-99.99,,2013-02-21 06:51:00,
2013-02-21 02:01:00,26.0,14.0,-100.00,NE,55,5.0,12.0,58,-99.99,,,-99.99,,2013-02-21 07:01:00,
2013-02-21 02:11:00,26.0,14.0,-100.00,NE,35,6.0,12.0,58,-99.99,,,-99.99,,2013-02-21 07:11:00,
2013-02-21 02:21:00,27.0,14.0,-100.00,ENE,65,3.0,12.0,58,-99.99,,,-99.99,,2013-02-21 07:21:00,
2013-02-21 02:32:00,27.0,14.0,-100.00,ENE,60,5.0,12.0,58,-99.99,,,-99.99,,2013-02-21 07:32:00,
2013-02-21 02:42:00,27.0,14.0,-100.00,ENE,75,5.0,10.0,57,-99.99,,,-99.99,,2013-02-21 07:42:00,
2013-02-21 02:52:00,27.0,14.0,-100.00,ENE,75,5.0,10.0,57,-99.99,,,-99.99,,2013-02-21 07:52:00,
2013-02-21 03:02:00,27.0,13.0,-100.00,North,350,3.0,15.0,55,-99.99,,,-99.99,,2013-02-21 08:02:00,
2013-02-21 03:11:00,27.0,13.0,-100.00,ENE,65,5.0,15.0,55,-99.99,,,-99.99,,2013-02-21 08:11:00,
2013-02-21 03:21:00,27.0,13.0,-100.00,ENE,65,5.0,15.0,55,-99.99,,,-99.99,,2013-02-21 08:21:00,
2013-02-21 03:32:00,27.0,13.0,-100.00,North,350,6.0,12.0,55,-99.99,,,-99.99,,2013-02-21 08:32:00,
2013-02-21 03:42:00,27.0,13.0,-100.00,NE,50,1.0,8.0,55,-99.99,,,-99.99,,2013-02-21 08:42:00,
2013-02-21 03:52:00,27.0,13.0,-100.00,ENE,65,5.0,12.0,56,-99.99,,,-99.99,,2013-02-21 08:52:00,
2013-02-21 04:02:00,27.0,13.0,-100.00,ENE,65,3.0,9.0,55,-99.99,,,-99.99,,2013-02-21 09:02:00,
2013-02-21 04:10:00,26.0,13.0,-100.00,NNE,25,5.0,10.0,56,-99.99,,,-99.99,,2013-02-21 09:10:00,
2013-02-21 04:11:00,27.0,13.0,-100.00,ENE,65,7.0,22.0,54,-99.99,,,-99.99,,2013-02-21 09:11:00,
2013-02-21 04:22:00,26.0,12.0,-100.00,ESE,105,2.0,10.0,55,-99.99,,,-99.99,,2013-02-21 09:22:00,
2013-02-21 04:32:00,26.0,13.0,-100.00,NNE,25,3.0,8.0,56,-99.99,,,-99.99,,2013-02-21 09:32:00,
2013-02-21 04:42:00,26.0,13.0,-100.00,ENE,60,3.0,13.0,56,-99.99,,,-99.99,,2013-02-21 09:42:00,
2013-02-21 04:52:00,26.0,13.0,-100.00,NNE,25,5.0,10.0,56,-99.99,,,-99.99,,2013-02-21 09:52:00,
2013-02-21 05:01:00,26.0,13.0,-100.00,NNE,25,5.0,10.0,56,-99.99,,,-99.99,,2013-02-21 10:01:00,
2013-02-21 05:41:00,26.0,12.0,-100.00,NE,40,5.0,18.0,55,-99.99,,,-99.99,,2013-02-21 10:41:00,
2013-02-21 05:51:00,26.0,12.0,-100.00,NE,40,5.0,18.0,55,-99.99,,,-99.99,,2013-02-21 10:51:00,
2013-02-21 06:01:00,26.0,12.0,-100.00,North,5,5.0,15.0,55,-99.99,,,-99.99,,2013-02-21 11:01:00,
2013-02-21 06:11:00,26.0,12.0,-100.00,NE,45,8.0,16.0,54,-99.99,,,-99.99,,2013-02-21 11:11:00,
2013-02-21 06:21:00,26.0,12.0,-100.00,North,355,3.0,16.0,54,-99.99,,,-99.99,,2013-02-21 11:21:00,
2013-02-21 06:31:00,26.0,12.0,-100.00,North,0,6.0,12.0,54,-99.99,,,-99.99,,2013-02-21 11:31:00,
2013-02-21 06:41:00,26.0,11.0,-100.00,NNE,20,7.0,15.0,54,-99.99,,,-99.99,,2013-02-21 11:41:00,
2013-02-21 06:51:00,26.0,11.0,-100.00,North,5,3.0,13.0,53,-99.99,,,-99.99,,2013-02-21 11:51:00,
2013-02-21 07:01:00,25.0,11.0,-100.00,NNE,15,7.0,18.0,54,-99.99,,,-99.99,,2013-02-21 12:01:00,
2013-02-21 07:11:00,25.0,11.0,-100.00,NE,45,5.0,13.0,53,-99.99,,,-99.99,,2013-02-21 12:11:00,
2013-02-21 07:22:00,25.0,11.0,-100.00,NNE,30,7.0,13.0,53,-99.99,,,-99.99,,2013-02-21 12:22:00,
2013-02-21 07:32:00,25.0,10.0,-100.00,NNE,20,6.0,15.0,53,-99.99,,,-99.99,,2013-02-21 12:32:00,
2013-02-21 07:43:00,25.0,10.0,-100.00,North,5,6.0,10.0,53,-99.99,,,-99.99,,2013-02-21 12:43:00,
2013-02-21 07:52:00,25.0,10.0,-100.00,NNE,20,6.0,14.0,53,-99.99,,,-99.99,,2013-02-21 12:52:00,
2013-02-21 08:02:00,25.0,10.0,-100.00,NE,55,7.0,17.0,52,-99.99,,,-99.99,,2013-02-21 13:02:00,
2013-02-21 08:12:00,25.0,10.0,-100.00,NE,45,7.0,17.0,52,-99.99,,,-99.99,,2013-02-21 13:12:00,
2013-02-21 08:22:00,25.0,10.0,-100.00,NE,45,7.0,16.0,52,-99.99,,,-99.99,,2013-02-21 13:22:00,
2013-02-21 08:32:00,25.0,10.0,-100.00,NE,45,7.0,16.0,52,-99.99,,,-99.99,,2013-02-21 13:32:00,
2013-02-21 08:42:00,26.0,9.0,-100.00,NNE,20,9.0,22.0,49,-99.99,,,-99.99,,2013-02-21 13:42:00,
2013-02-21 08:52:00,26.0,10.0,-100.00,NE,40,9.0,17.0,49,-99.99,,,-99.99,,2013-02-21 13:52:00,
2013-02-21 09:02:00,26.0,9.0,-100.00,NE,55,7.0,21.0,49,-99.99,,,-99.99,,2013-02-21 14:02:00,
2013-02-21 09:11:00,26.0,10.0,-100.00,NE,50,7.0,21.0,50,-99.99,,,-99.99,,2013-02-21 14:11:00,
2013-02-21 09:22:00,26.0,9.0,-100.00,East,85,6.0,21.0,49,-99.99,,,-99.99,,2013-02-21 14:22:00,
2013-02-21 09:32:00,26.0,9.0,-100.00,NNE,30,10.0,21.0,48,-99.99,,,-99.99,,2013-02-21 14:32:00,
2013-02-21 09:42:00,27.0,10.0,-100.00,NE,40,5.0,14.0,47,-99.99,,,-99.99,,2013-02-21 14:42:00,
2013-02-21 09:52:00,28.0,10.0,-100.00,ENE,70,7.0,13.0,46,-99.99,,,-99.99,,2013-02-21 14:52:00,
2013-02-21 10:02:00,28.0,10.0,-100.00,ENE,65,7.0,20.0,46,-99.99,,,-99.99,,2013-02-21 15:02:00,
2013-02-21 10:10:00,29.0,10.0,-100.00,ENE,60,5.0,17.0,43,-99.99,,,-99.99,,2013-02-21 15:10:00,
2013-02-21 10:12:00,28.0,9.0,-100.00,NNE,30,6.0,16.0,44,-99.99,,,-99.99,,2013-02-21 15:12:00,
2013-02-21 10:22:00,28.0,9.0,-100.00,NE,50,5.0,14.0,43,-99.99,,,-99.99,,2013-02-21 15:22:00,
2013-02-21 10:32:00,28.0,9.0,-100.00,ENE,75,7.0,18.0,44,-99.99,,,-99.99,,2013-02-21 15:32:00,
2013-02-21 10:42:00,30.0,10.0,-100.00,NE,40,3.0,14.0,43,-99.99,,,-99.99,,2013-02-21 15:42:00,
2013-02-21 10:52:00,29.0,10.0,-100.00,ENE,60,5.0,17.0,43,-99.99,,,-99.99,,2013-02-21 15:52:00,
2013-02-21 11:02:00,29.0,10.0,-100.00,ENE,60,5.0,17.0,43,-99.99,,,-99.99,,2013-02-21 16:02:00,
2013-02-21 13:12:00,33.0,11.0,-100.00,East,80,10.0,20.0,39,-99.99,,,-99.99,,2013-02-21 18:12:00,
2013-02-21 13:22:00,32.0,10.0,-100.00,ENE,60,9.0,23.0,39,-99.99,,,-99.99,,2013-02-21 18:22:00,
2013-02-21 13:32:00,32.0,10.0,-100.00,ENE,60,9.0,23.0,39,-99.99,,,-99.99,,2013-02-21 18:32:00,
2013-02-21 13:42:00,34.0,12.0,-100.00,NE,40,7.0,18.0,40,-99.99,,,-99.99,,2013-02-21 18:42:00,
2013-02-21 13:52:00,33.0,11.0,-100.00,NE,50,7.0,21.0,39,-99.99,,,-99.99,,2013-02-21 18:52:00,
2013-02-21 14:02:00,33.0,12.0,-100.00,East,90,7.0,17.0,41,-99.99,,,-99.99,,2013-02-21 19:02:00,
2013-02-21 14:12:00,33.0,12.0,-100.00,ESE,105,5.0,18.0,40,-99.99,,,-99.99,,2013-02-21 19:12:00,
2013-02-21 14:21:00,34.0,13.0,-100.00,ENE,75,5.0,15.0,40,-99.99,,,-99.99,,2013-02-21 19:21:00,
2013-02-21 14:32:00,35.0,12.0,-100.00,NE,45,6.0,15.0,37,-99.99,,,-99.99,,2013-02-21 19:32:00,
2013-02-21 14:42:00,35.0,11.0,-100.00,NE,55,9.0,20.0,37,-99.99,,,-99.99,,2013-02-21 19:42:00,
2013-02-21 14:52:00,35.0,11.0,-100.00,East,80,7.0,14.0,37,-99.99,,,-99.99,,2013-02-21 19:52:00,
2013-02-21 15:01:00,36.0,13.0,-100.00,East,85,5.0,17.0,39,-99.99,,,-99.99,,2013-02-21 20:01:00,
2013-02-21 15:11:00,35.0,12.0,-100.00,ENE,75,8.0,27.0,39,-99.99,,,-99.99,,2013-02-21 20:11:00,
2013-02-21 15:21:00,35.0,12.0,-100.00,ESE,115,8.0,23.0,39,-99.99,,,-99.99,,2013-02-21 20:21:00,
2013-02-21 15:32:00,35.0,12.0,-100.00,ENE,70,6.0,16.0,39,-99.99,,,-99.99,,2013-02-21 20:32:00,
2013-02-21 15:42:00,35.0,12.0,-100.00,East,100,5.0,20.0,39,-99.99,,,-99.99,,2013-02-21 20:42:00,
2013-02-21 15:52:00,35.0,14.0,-100.00,East,80,5.0,17.0,40,-99.99,,,-99.99,,2013-02-21 20:52:00,
2013-02-21 16:02:00,35.0,13.0,-100.00,ESE,105,5.0,14.0,41,-99.99,,,-99.99,,2013-02-21 21:02:00,
2013-02-21 16:10:00,33.0,12.0,-100.00,ENE,65,9.0,20.0,42,-99.99,,,-99.99,,2013-02-21 21:10:00,
2013-02-21 16:12:00,35.0,13.0,-100.00,SSE,150,5.0,16.0,41,-99.99,,,-99.99,,2013-02-21 21:12:00,
2013-02-21 16:22:00,34.0,13.0,-100.00,East,95,6.0,15.0,42,-99.99,,,-99.99,,2013-02-21 21:22:00,
2013-02-21 16:32:00,34.0,14.0,-100.00,East,95,5.0,15.0,43,-99.99,,,-99.99,,2013-02-21 21:32:00,
2013-02-21 16:42:00,34.0,13.0,-100.00,ENE,65,7.0,17.0,41,-99.99,,,-99.99,,2013-02-21 21:42:00,
2013-02-21 16:52:00,33.0,12.0,-100.00,ENE,65,9.0,20.0,42,-99.99,,,-99.99,,2013-02-21 21:52:00,
2013-02-21 17:01:00,33.0,12.0,-100.00,ENE,65,9.0,20.0,42,-99.99,,,-99.99,,2013-02-21 22:01:00,
2013-02-21 18:42:00,29.0,13.0,-100.00,ENE,65,7.0,18.0,50,-99.99,,,-99.99,,2013-02-21 23:42:00,
2013-02-21 18:53:00,29.0,12.0,-100.00,East,90,3.0,13.0,50,-99.99,,,-99.99,,2013-02-21 23:53:00,
2013-02-21 19:02:00,29.0,13.0,-100.00,East,80,3.0,15.0,51,-99.99,,,-99.99,,2013-02-22 00:02:00,
2013-02-21 19:11:00,29.0,13.0,-100.00,SE,130,3.0,13.0,51,-99.99,,,-99.99,,2013-02-22 00:11:00,
2013-02-21 19:22:00,29.0,13.0,-100.00,East,90,5.0,17.0,51,-99.99,,,-99.99,,2013-02-22 00:22:00,
2013-02-21 19:42:00,29.0,13.0,-100.00,East,95,5.0,14.0,51,-99.99,,,-99.99,,2013-02-22 00:42:00,
2013-02-21 19:52:00,28.0,13.0,-100.00,East,95,2.0,18.0,53,-99.99,,,-99.99,,2013-02-22 00:52:00,
2013-02-21 20:01:00,27.0,13.0,-100.00,East,85,3.0,12.0,53,-99.99,,,-99.99,,2013-02-22 01:01:00,
2013-02-21 20:11:00,27.0,13.0,-100.00,ENE,70,3.0,16.0,54,-99.99,,,-99.99,,2013-02-22 01:11:00,
2013-02-21 20:22:00,27.0,13.0,-100.00,East,95,6.0,12.0,54,-99.99,,,-99.99,,2013-02-22 01:22:00,
2013-02-21 20:32:00,27.0,13.0,-100.00,East,95,6.0,12.0,54,-99.99,,,-99.99,,2013-02-22 01:32:00,
2013-02-21 20:42:00,27.0,13.0,-100.00,ENE,65,5.0,12.0,56,-99.99,,,-99.99,,2013-02-22 01:42:00,
2013-02-21 20:52:00,26.0,13.0,-100.00,SSE,160,2.0,8.0,56,-99.99,,,-99.99,,2013-02-22 01:52:00,
2013-02-21 21:42:00,26.0,13.0,-100.00,SE,135,3.0,10.0,59,-99.99,,,-99.99,,2013-02-22 02:42:00,
2013-02-21 21:52:00,26.0,13.0,-100.00,SE,130,3.0,10.0,59,-99.99,,,-99.99,,2013-02-22 02:52:00,
2013-02-21 22:22:00,26.0,14.0,-100.00,SSE,160,5.0,9.0,61,-99.99,,,-99.99,,2013-02-22 03:22:00,
2013-02-21 22:30:00,25.0,14.0,-100.00,ENE,70,3.0,8.0,63,-99.99,,,-99.99,,2013-02-22 03:30:00,
2013-02-21 22:32:00,25.0,14.0,-100.00,ENE,60,2.0,7.0,61,-99.99,,,-99.99,,2013-02-22 03:32:00,
2013-02-21 22:42:00,25.0,14.0,-100.00,SE,140,2.0,6.0,62,-99.99,,,-99.99,,2013-02-22 03:42:00,
2013-02-21 22:52:00,25.0,14.0,-100.00,SE,125,2.0,6.0,62,-99.99,,,-99.99,,2013-02-22 03:52:00,
2013-02-21 23:02:00,25.0,14.0,-100.00,SE,125,2.0,6.0,62,-99.99,,,-99.99,,2013-02-22 04:02:00,
2013-02-21 23:11:00,25.0,14.0,-100.00,ENE,70,3.0,8.0,63,-99.99,,,-99.99,,2013-02-22 04:11:00,
2013-02-21 23:21:00,25.0,14.0,-100.00,ENE,70,3.0,8.0,63,-99.99,,,-99.99,,2013-02-22 04:21:00,